• In Hungary
  • List of Countries
  • For 7 days
  • Water Temperature
  • Satellite Maps
  • Weather Map
  • News
  • Weather Widgets
  • user-avatar
    Login

    Hourly Weather Shardzha

    Today, 25 November, Saturday

    Time Temperature Precipitation Wind Pressure Humidity
    00:00 +25°C° 0 mm 4 mps 762 mmHg 61%
    01:00 +25°C° 0 mm 4 mps 762 mmHg 61%
    02:00 +25°C° 0 mm 5 mps 762 mmHg 61%
    03:00 +23°C° 0 mm 5 mps 762 mmHg 61%
    04:00 +23°C° 0 mm 4 mps 762 mmHg 63%
    05:00 +23°C° 0 mm 4 mps 762 mmHg 62%
    06:00 +23°C° 0 mm 4 mps 763 mmHg 61%
    07:00 +23°C° 0 mm 5 mps 763 mmHg 61%
    08:00 +26°C° 0 mm 6 mps 763 mmHg 52%
    09:00 +27°C° 0 mm 7 mps 763 mmHg 43%
    10:00 +29°C° 0 mm 7 mps 764 mmHg 34%
    11:00 +29°C° 0 mm 7 mps 764 mmHg 34%
    12:00 +31°C° 0 mm 8 mps 764 mmHg 33%
    13:00 +31°C° 0 mm 8 mps 763 mmHg 33%
    14:00 +29°C° 0 mm 8 mps 763 mmHg 35%
    15:00 +29°C° 0 mm 8 mps 763 mmHg 38%
    16:00 +28°C° 0 mm 8 mps 763 mmHg 40%
    17:00 +27°C° 0 mm 7 mps 763 mmHg 45%
    18:00 +26°C° 0 mm 6 mps 763 mmHg 50%
    19:00 +24°C° 0 mm 6 mps 763 mmHg 54%
    20:00 +25°C° 0 mm 5 mps 763 mmHg 56%
    21:00 +23°C° 0 mm 5 mps 764 mmHg 58%
    22:00 +23°C° 0 mm 5 mps 764 mmHg 60%
    23:00 +23°C° 0 mm 5 mps 764 mmHg 62%

    Tomorrow, 26 November, Sunday

    Time Temperature Precipitation Wind Pressure Humidity
    00:00 +23°C° 0 mm 5 mps 763 mmHg 64%
    01:00 +22°C° 0 mm 5 mps 763 mmHg 66%
    02:00 +22°C° 0 mm 5 mps 763 mmHg 67%
    03:00 +22°C° 0 mm 4 mps 763 mmHg 68%
    04:00 +22°C° 0 mm 4 mps 763 mmHg 69%
    05:00 +22°C° 0 mm 4 mps 763 mmHg 69%
    06:00 +21°C° 0 mm 4 mps 764 mmHg 69%
    07:00 +21°C° 0 mm 3 mps 764 mmHg 69%
    08:00 +24°C° 0 mm 3 mps 764 mmHg 61%
    09:00 +26°C° 0 mm 3 mps 764 mmHg 54%
    10:00 +27°C° 0 mm 3 mps 765 mmHg 46%
    11:00 +28°C° 0 mm 3 mps 764 mmHg 43%
    12:00 +29°C° 0 mm 3 mps 764 mmHg 40%
    13:00 +29°C° 0 mm 4 mps 763 mmHg 36%
    14:00 +29°C° 0 mm 3 mps 763 mmHg 36%
    15:00 +29°C° 0 mm 3 mps 762 mmHg 36%
    16:00 +29°C° 0 mm 3 mps 762 mmHg 36%
    17:00 +28°C° 0 mm 3 mps 762 mmHg 39%
    18:00 +26°C° 0 mm 2 mps 762 mmHg 43%
    19:00 +25°C° 0 mm 2 mps 763 mmHg 47%
    20:00 +24°C° 0 mm 2 mps 763 mmHg 49%
    21:00 +23°C° 0 mm 1 mps 763 mmHg 51%
    22:00 +22°C° 0 mm 1 mps 763 mmHg 53%
    23:00 +22°C° 0 mm 1 mps 762 mmHg 54%

    Day after tomorrow, 27 November, Monday

    Time Temperature Precipitation Wind Pressure Humidity
    00:00 +22°C° 0 mm 1 mps 762 mmHg 55%
    01:00 +21°C° 0 mm 1 mps 762 mmHg 57%
    02:00 +21°C° 0 mm 1 mps 762 mmHg 57%
    03:00 +21°C° 0 mm 1 mps 762 mmHg 58%
    04:00 +21°C° 0 mm 1 mps 761 mmHg 59%
    05:00 +21°C° 0 mm 1 mps 762 mmHg 59%
    06:00 +21°C° 0 mm 1 mps 762 mmHg 59%
    07:00 +21°C° 0 mm 1 mps 762 mmHg 59%
    08:00 +23°C° 0 mm 1 mps 762 mmHg 53%
    09:00 +25°C° 0 mm 1 mps 763 mmHg 47%
    10:00 +27°C° 0 mm 1 mps 763 mmHg 41%
    11:00 +28°C° 0 mm 1 mps 762 mmHg 37%
    12:00 +29°C° 0 mm 1 mps 762 mmHg 34%
    13:00 +30°C° 0 mm 1 mps 761 mmHg 30%
    14:00 +30°C° 0 mm 2 mps 761 mmHg 31%
    15:00 +30°C° 0 mm 3 mps 760 mmHg 33%
    16:00 +29°C° 0 mm 4 mps 760 mmHg 34%
    17:00 +28°C° 0 mm 3 mps 760 mmHg 40%
    18:00 +26°C° 0 mm 3 mps 760 mmHg 45%
    19:00 +25°C° 0 mm 3 mps 761 mmHg 51%
    20:00 +24°C° 0 mm 2 mps 761 mmHg 53%
    21:00 +23°C° 0 mm 2 mps 761 mmHg 54%
    22:00 +23°C° 0 mm 1 mps 761 mmHg 56%
    23:00 +22°C° 0 mm 1 mps 761 mmHg 57%

    28 November, Tuesday

    Time Temperature Precipitation Wind Pressure Humidity
    00:00 +22°C° 0 mm 1 mps 760 mmHg 58%
    01:00 +22°C° 0 mm 1 mps 760 mmHg 58%
    02:00 +21°C° 0 mm 2 mps 760 mmHg 57%
    03:00 +21°C° 0 mm 2 mps 760 mmHg 56%
    04:00 +21°C° 0 mm 2 mps 760 mmHg 55%
    05:00 +21°C° 0 mm 2 mps 760 mmHg 54%
    06:00 +21°C° 0 mm 3 mps 760 mmHg 53%
    07:00 +21°C° 0 mm 3 mps 760 mmHg 53%
    08:00 +25°C° 0 mm 3 mps 761 mmHg 50%
    09:00 +27°C° 0 mm 3 mps 761 mmHg 46%
    10:00 +29°C° 0 mm 4 mps 761 mmHg 43%
    11:00 +30°C° 0 mm 5 mps 760 mmHg 44%
    12:00 +32°C° 0 mm 6 mps 760 mmHg 44%
    13:00 +33°C° 0 mm 8 mps 759 mmHg 44%
    14:00 +33°C° 0 mm 8 mps 759 mmHg 46%
    15:00 +32°C° 0 mm 8 mps 759 mmHg 47%
    16:00 +32°C° 0 mm 8 mps 758 mmHg 49%
    17:00 +30°C° 0 mm 7 mps 759 mmHg 54%
    18:00 +28°C° 0 mm 7 mps 759 mmHg 59%
    19:00 +27°C° 0 mm 6 mps 759 mmHg 64%
    20:00 +27°C° 0 mm 6 mps 760 mmHg 65%
    21:00 +27°C° 0 mm 6 mps 760 mmHg 65%
    22:00 +26°C° 0 mm 6 mps 760 mmHg 66%
    23:00 +26°C° 0 mm 6 mps 760 mmHg 66%

    29 November, Wednesday

    Time Temperature Precipitation Wind Pressure Humidity
    00:00 +26°C° 0 mm 7 mps 760 mmHg 66%
    01:00 +26°C° 0 mm 7 mps 760 mmHg 66%
    02:00 +24°C° 0 mm 7 mps 760 mmHg 66%
    03:00 +24°C° 0 mm 7 mps 760 mmHg 66%
    04:00 +24°C° 0 mm 7 mps 760 mmHg 66%
    05:00 +24°C° 0 mm 6 mps 760 mmHg 66%
    06:00 +24°C° 0 mm 6 mps 760 mmHg 66%
    07:00 +23°C° 0 mm 6 mps 761 mmHg 66%
    08:00 +26°C° 0 mm 6 mps 761 mmHg 59%
    09:00 +28°C° 0 mm 6 mps 762 mmHg 51%
    10:00 +29°C° 0 mm 6 mps 762 mmHg 43%
    11:00 +30°C° 0 mm 6 mps 761 mmHg 40%
    12:00 +30°C° 0 mm 6 mps 761 mmHg 38%
    13:00 +32°C° 0 mm 7 mps 760 mmHg 36%
    14:00 +30°C° 0 mm 6 mps 760 mmHg 37%
    15:00 +30°C° 0 mm 6 mps 760 mmHg 39%
    16:00 +29°C° 0 mm 6 mps 760 mmHg 41%
    17:00 +28°C° 0 mm 5 mps 760 mmHg 46%
    18:00 +27°C° 0 mm 4 mps 760 mmHg 52%
    19:00 +25°C° 0 mm 3 mps 761 mmHg 58%
    20:00 +24°C° 0 mm 3 mps 761 mmHg 61%
    21:00 +24°C° 0 mm 2 mps 761 mmHg 63%
    22:00 +23°C° 0 mm 2 mps 761 mmHg 66%
    23:00 +23°C° 0 mm 2 mps 761 mmHg 67%

    30 November, Thursday

    Time Temperature Precipitation Wind Pressure Humidity
    00:00 +23°C° 0 mm 2 mps 760 mmHg 67%
    01:00 +23°C° 0 mm 2 mps 760 mmHg 67%
    02:00 +21°C° 0 mm 2 mps 760 mmHg 68%
    03:00 +21°C° 0 mm 2 mps 760 mmHg 69%
    04:00 +22°C° 0 mm 1 mps 760 mmHg 70%
    05:00 +20°C° 0 mm 2 mps 760 mmHg 71%
    06:00 +20°C° 0 mm 2 mps 761 mmHg 72%
    07:00 +20°C° 0 mm 2 mps 761 mmHg 73%
    08:00 +23°C° 0 mm 1 mps 761 mmHg 64%
    09:00 +25°C° 0 mm 1 mps 762 mmHg 55%
    10:00 +27°C° 0 mm 1 mps 762 mmHg 47%
    11:00 +28°C° 0 mm 1 mps 761 mmHg 42%
    12:00 +29°C° 0 mm 1 mps 761 mmHg 38%
    13:00 +30°C° 0 mm 2 mps 760 mmHg 33%
    14:00 +30°C° 0 mm 2 mps 760 mmHg 35%
    15:00 +30°C° 0 mm 3 mps 760 mmHg 37%
    16:00 +30°C° 0 mm 4 mps 759 mmHg 39%
    17:00 +28°C° 0 mm 3 mps 760 mmHg 45%
    18:00 +27°C° 0 mm 3 mps 760 mmHg 51%
    19:00 +25°C° 0 mm 3 mps 760 mmHg 58%
    20:00 +25°C° 0 mm 2 mps 760 mmHg 58%
    21:00 +24°C° 0 mm 2 mps 760 mmHg 59%
    22:00 +23°C° 0 mm 2 mps 760 mmHg 60%
    23:00 +23°C° 0 mm 1 mps 760 mmHg 62%
    Show more